EW1613 Weather Reports


Display with metric or nautical units.
time (UTC)temp
F
wind
direction
speed
MPH
gust
MPH
rain 1hr
in
rain 24hr
in
rain mn
in
humidity
%
barometer
mb
20260902103113 87 323 3.0 4.0 0.00 0.00 0.00 46 1018.9
20260902102613 87 52 0.0 2.0 0.00 0.00 0.00 46 1019.0
20260902102053 86 54 1.0 3.0 0.00 0.00 0.00 46 1019.0
20260902101546 86 152 1.0 4.0 0.00 0.00 0.00 47 1019.0
20260902101046 86 288 1.0 6.0 0.00 0.00 0.00 47 1019.1
20260902100623 86 59 2.0 6.0 0.00 0.00 0.00 47 1019.1
20260902100056 86 73 2.0 4.0 0.00 0.00 0.00 47 1019.1
20260902095557 86 25 2.0 4.0 0.00 0.00 0.00 48 1019.1
20260902095050 86 30 2.0 4.0 0.00 0.00 0.00 47 1019.2
20260902094551 86 132 2.0 5.0 0.00 0.00 0.00 47 1019.2
20260902094111 86 74 3.0 5.0 0.00 0.00 0.00 48 1019.2
20260902093604 85 47 1.0 5.0 0.00 0.00 0.00 48 1019.2
20260902093105 85 63 3.0 5.0 0.00 0.00 0.00 49 1019.3
20260902092558 85 45 2.0 5.0 0.00 0.00 0.00 49 1019.3
20260902092059 85 44 3.0 5.0 0.00 0.00 0.00 49 1019.3
20260902091553 85 63 0.0 3.0 0.00 0.00 0.00 50 1019.3
20260902091051 84 63 1.0 4.0 0.00 0.00 0.00 51 1019.4
20260902090605 84 13 2.0 6.0 0.00 0.00 0.00 51 1019.4
20260902090106 83 82 2.0 7.0 0.00 0.00 0.00 51 1019.4
20260902085559 83 88 2.0 7.0 0.00 0.00 0.00 51 1019.4
20260902085100 83 65 2.0 6.0 0.00 0.00 0.00 52 1019.4
20260902084554 83 37 3.0 6.0 0.00 0.00 0.00 51 1019.3
20260902084055 83 71 2.0 6.0 0.00 0.00 0.00 52 1019.3
20260902083609 82 56 2.0 7.0 0.00 0.00 0.00 53 1019.3
20260902083049 82 59 3.0 6.0 0.00 0.00 0.00 52 1019.2
20260902082610 82 61 2.0 6.0 0.00 0.00 0.00 52 1019.3
20260902082104 82 9 2.0 6.0 0.00 0.00 0.00 53 1019.2
20260902081557 82 360 2.0 5.0 0.00 0.00 0.00 55 1019.2
20260902081058 82 355 3.0 5.0 0.00 0.00 0.00 54 1019.2
20260902080549 81 49 0.0 3.0 0.00 0.00 0.00 56 1019.2
20260902080049 81 51 1.0 4.0 0.00 0.00 0.00 58 1019.1
20260902075549 81 314 2.0 4.0 0.00 0.00 0.00 60 1019.1
20260902075103 80 325 1.0 2.0 0.00 0.00 0.00 64 1019.2
20260902074623 79 325 0.0 3.0 0.00 0.00 0.00 64 1019.1
20260902074103 79 325 2.0 3.0 0.00 0.00 0.00 65 1019.1
20260902073557 79 324 1.0 3.0 0.00 0.00 0.00 66 1019.2
20260902073059 78 325 0.0 3.0 0.00 0.00 0.00 68 1019.1
20260902072552 78 325 1.0 3.0 0.00 0.00 0.00 68 1019.0
20260902072045 77 331 2.0 4.0 0.00 0.00 0.00 68 1019.0
20260902071546 77 335 1.0 4.0 0.00 0.00 0.00 69 1019.0
20260902071107 76 331 1.0 3.0 0.00 0.00 0.00 70 1019.0
20260902070601 75 333 1.0 4.0 0.00 0.00 0.00 71 1018.9
20260902070054 75 324 1.0 4.0 0.00 0.00 0.00 73 1018.8
20260902065554 74 317 2.0 4.0 0.00 0.00 0.00 73 1018.8
20260902065048 74 312 3.0 5.0 0.00 0.00 0.00 73 1018.9
20260902064548 74 309 3.0 5.0 0.00 0.00 0.00 73 1019.0
20260902064110 73 308 2.0 6.0 0.00 0.00 0.00 75 1019.0
20260902063545 73 306 2.0 5.0 0.00 0.00 0.00 76 1019.0
20260902063107 72 325 2.0 5.0 0.00 0.00 0.00 76 1019.0
20260902062600 72 317 2.0 5.0 0.00 0.00 0.00 77 1018.9
20260902062054 72 309 3.0 5.0 0.00 0.00 0.00 77 1018.9
20260902061552 71 305 3.0 5.0 0.00 0.00 0.00 77 1018.9
20260902061045 71 306 2.0 4.0 0.00 0.00 0.00 78 1018.9
20260902060546 71 311 3.0 5.0 0.00 0.00 0.00 78 1018.8
20260902060106 71 315 3.0 5.0 0.00 0.00 0.00 78 1018.8
20260902055559 71 314 2.0 4.0 0.00 0.00 0.00 78 1018.8
20260902055116 70 319 3.0 4.0 0.00 0.00 0.00 77 1018.7
20260902054550 70 310 0.0 0.0 0.00 0.00 0.00 78 1018.6
20260902054052 70 310 0.0 1.0 0.00 0.00 0.00 78 1018.6
20260902053545 69 310 0.0 2.0 0.00 0.00 0.00 79 1018.6
20260902053106 69 310 1.0 2.0 0.00 0.00 0.00 79 1018.6
20260902052600 69 309 0.0 0.0 0.00 0.00 0.00 79 1018.6
20260902052121 69 309 0.0 0.0 0.00 0.00 0.00 80 1018.5
20260902051600 69 309 0.0 0.0 0.00 0.00 0.00 80 1018.4
20260902051054 69 309 0.0 0.0 0.00 0.00 0.00 81 1018.4
20260902050554 69 309 0.0 0.0 0.00 0.00 0.00 81 1018.4
20260902050055 68 309 0.0 0.0 0.00 0.00 0.00 81 1018.5
20260902045549 68 309 0.0 0.0 0.00 0.00 0.00 81 1018.5
20260902045110 68 309 0.0 0.0 0.00 0.00 0.00 81 1018.5
20260902044610 68 309 0.0 0.0 0.00 0.00 0.00 81 1018.4
20260902044103 68 309 0.0 0.0 0.00 0.00 0.00 81 1018.4
20260902043557 68 309 0.0 0.0 0.00 0.00 0.00 81 1018.4
20260902043058 68 309 0.0 0.0 0.00 0.00 0.00 80 1018.3
20260902042551 68 309 0.0 0.0 0.00 0.00 0.00 80 1018.4
20260902042052 68 309 0.0 0.0 0.00 0.00 0.00 80 1018.4
20260902041546 68 309 0.0 0.0 0.00 0.00 0.00 80 1018.4
20260902041047 68 309 0.0 0.0 0.00 0.00 0.00 80 1018.4
20260902040601 68 309 0.0 0.0 0.00 0.00 0.00 80 1018.3
20260902035553 69 309 0.0 1.0 0.00 0.00 0.00 80 1018.4
20260902035053 69 309 0.0 0.0 0.00 0.00 0.00 79 1018.3
20260902034554 69 309 0.0 1.0 0.00 0.00 0.00 79 1018.3
20260902034047 69 309 0.0 2.0 0.00 0.00 0.00 79 1018.3
20260902033607 69 309 0.0 3.0 0.00 0.00 0.00 79 1018.3
20260902033101 69 309 2.0 3.0 0.00 0.00 0.00 79 1018.3
20260902032601 69 311 2.0 3.0 0.00 0.00 0.00 79 1018.3
20260902032054 69 311 0.0 2.0 0.00 0.00 0.00 79 1018.3
20260902031553 69 311 0.0 3.0 0.00 0.00 0.00 79 1018.3
20260902031047 69 311 1.0 4.0 0.00 0.00 0.00 79 1018.3
20260902030548 69 311 2.0 4.0 0.00 0.00 0.00 79 1018.3
20260902030109 69 310 0.0 3.0 0.00 0.00 0.00 80 1018.3
20260902025602 69 310 0.0 2.0 0.00 0.00 0.00 80 1018.3
20260902025056 69 310 1.0 3.0 0.00 0.00 0.00 79 1018.3
20260902024557 69 310 2.0 3.0 0.00 0.00 0.00 79 1018.3
20260902024050 69 310 2.0 3.0 0.00 0.00 0.00 79 1018.3
20260902023611 69 310 0.0 0.0 0.00 0.00 0.00 79 1018.3
20260902023051 69 310 0.0 0.0 0.00 0.00 0.00 79 1018.3
20260902022628 69 310 0.0 1.0 0.00 0.00 0.00 79 1018.3
20260902022102 69 310 0.0 1.0 0.00 0.00 0.00 79 1018.3
20260902021602 69 310 0.0 2.0 0.00 0.00 0.00 79 1018.3
20260902021055 69 310 1.0 3.0 0.00 0.00 0.00 79 1018.3
20260902020555 69 310 1.0 2.0 0.00 0.00 0.00 79 1018.3
20260902020046 69 309 0.0 2.0 0.00 0.00 0.00 80 1018.4
20260902015604 69 309 0.0 3.0 0.00 0.00 0.00 80 1018.4
20260902015105 69 309 0.0 3.0 0.00 0.00 0.00 80 1018.3
20260902014558 69 309 0.0 3.0 0.00 0.00 0.00 80 1018.3
20260902014119 69 309 0.0 4.0 0.00 0.00 0.00 80 1018.4
20260902013557 69 309 1.0 4.0 0.00 0.00 0.00 80 1018.4
20260902013058 69 309 2.0 4.0 0.00 0.00 0.00 80 1018.3
20260902012552 70 313 2.0 3.0 0.00 0.00 0.00 80 1018.3
20260902012052 70 319 1.0 2.0 0.00 0.00 0.00 79 1018.2
20260902011546 70 319 1.0 2.0 0.00 0.00 0.00 79 1018.3
20260902011107 70 318 1.0 3.0 0.00 0.00 0.00 79 1018.2
20260902010546 70 318 1.0 3.0 0.00 0.00 0.00 79 1018.3
20260902010059 70 316 0.0 2.0 0.00 0.00 0.00 79 1018.4
20260902005600 70 316 0.0 2.0 0.00 0.00 0.00 79 1018.5
20260902005121 70 315 0.0 0.0 0.00 0.00 0.00 79 1018.5
20260902004552 70 315 0.0 0.0 0.00 0.00 0.00 79 1018.5
20260902004053 70 315 0.0 0.0 0.00 0.00 0.00 79 1018.5
20260902003546 70 315 0.0 1.0 0.00 0.00 0.00 79 1018.6
20260902003048 70 315 0.0 1.0 0.00 0.00 0.00 79 1018.5
20260902002557 70 315 0.0 2.0 0.00 0.00 0.00 79 1018.4
20260902002058 70 315 1.0 2.0 0.00 0.00 0.00 79 1018.4
20260902001551 70 315 0.0 3.0 0.00 0.00 0.00 79 1018.4
20260902001051 70 315 2.0 3.0 0.00 0.00 0.00 78 1018.4
20260902000545 70 315 2.0 3.0 0.00 0.00 0.00 78 1018.4
20260902000057 70 315 1.0 3.0 0.00 0.00 0.00 78 1018.4
20260901235618 70 315 1.0 3.0 0.00 0.00 0.00 78 1018.4
20260901235114 70 315 2.0 3.0 0.00 0.00 0.00 78 1018.4
20260901234607 71 315 1.0 2.0 0.00 0.00 0.00 78 1018.4
20260901234106 71 315 0.0 2.0 0.00 0.00 0.00 78 1018.4
20260901233625 71 315 1.0 2.0 0.00 0.00 0.00 77 1018.4
20260901233045 71 315 1.0 2.0 0.00 0.00 0.00 77 1018.4
20260901232605 71 315 1.0 3.0 0.00 0.00 0.00 77 1018.4
20260901232058 71 315 1.0 3.0 0.00 0.00 0.00 77 1018.3
20260901231559 71 315 1.0 3.0 0.00 0.00 0.00 77 1018.4
20260901231054 71 314 1.0 3.0 0.00 0.00 0.00 76 1018.4
20260901230601 71 314 1.0 3.0 0.00 0.00 0.00 76 1018.4
20260901225555 71 308 0.0 2.0 0.00 0.00 0.00 75 1018.3
20260901225056 72 308 0.0 1.0 0.00 0.00 0.00 75 1018.3
20260901224550 72 308 0.0 0.0 0.00 0.00 0.00 75 1018.2
20260901224111 72 308 0.0 0.0 0.00 0.00 0.00 75 1018.2
20260901223545 72 308 0.0 1.0 0.00 0.00 0.00 74 1018.3
20260901223106 72 308 0.0 1.0 0.00 0.00 0.00 74 1018.3
20260901222616 72 308 0.0 2.0 0.00 0.00 0.00 73 1018.3
20260901222049 72 308 1.0 2.0 0.00 0.00 0.00 73 1018.3
20260901221606 72 308 1.0 2.0 0.00 0.00 0.00 73 1018.3
20260901221106 73 307 1.0 2.0 0.00 0.00 0.00 72 1018.3
20260901220600 73 307 1.0 4.0 0.00 0.00 0.00 72 1018.3
20260901220101 73 309 1.0 4.0 0.00 0.00 0.00 71 1018.4
20260901215614 73 44 0.0 0.0 0.00 0.00 0.00 70 1018.4
20260901215056 73 44 0.0 0.0 0.00 0.00 0.00 70 1018.4
20260901214555 73 44 0.0 0.0 0.00 0.00 0.00 70 1018.3
20260901214049 73 44 0.0 0.0 0.00 0.00 0.00 69 1018.2
20260901213549 73 44 0.0 0.0 0.00 0.00 0.00 69 1018.2
20260901213103 73 44 0.0 0.0 0.00 0.00 0.00 69 1018.2
20260901212604 74 44 0.0 0.0 0.00 0.00 0.00 69 1018.2
20260901212058 74 44 0.0 0.0 0.00 0.00 0.00 69 1018.2
20260901211618 74 44 0.0 0.0 0.00 0.00 0.00 69 1018.2
20260901211058 74 44 0.0 0.0 0.00 0.00 0.00 69 1018.2
20260901210612 74 44 0.0 0.0 0.00 0.00 0.00 69 1018.2
20260901210052 74 44 0.0 2.0 0.00 0.00 0.00 68 1018.2
20260901205552 74 44 0.0 3.0 0.00 0.00 0.00 68 1018.2
20260901205045 75 44 1.0 3.0 0.00 0.00 0.00 67 1018.2
20260901204606 75 14 1.0 2.0 0.00 0.00 0.00 66 1018.2
20260901204100 75 141 0.0 1.0 0.00 0.00 0.00 65 1018.1
20260901203601 75 141 0.0 2.0 0.00 0.00 0.00 65 1018.1
20260901203054 76 141 1.0 2.0 0.00 0.00 0.00 64 1018.2
20260901202554 76 141 1.0 1.0 0.00 0.00 0.00 63 1018.1
20260901202048 77 141 0.0 1.0 0.00 0.00 0.00 62 1018.0
20260901201609 77 141 0.0 0.0 0.00 0.00 0.00 61 1017.9
20260901201108 78 141 0.0 0.0 0.00 0.00 0.00 60 1017.9
20260901200602 78 141 0.0 0.0 0.00 0.00 0.00 60 1017.8
20260901195557 79 141 0.0 0.0 0.00 0.00 0.00 58 1017.8
20260901195100 79 141 0.0 0.0 0.00 0.00 0.00 58 1017.8
20260901194612 79 141 0.0 0.0 0.00 0.00 0.00 57 1017.8
20260901194052 80 141 0.0 1.0 0.00 0.00 0.00 56 1017.8
20260901193546 80 141 0.0 1.0 0.00 0.00 0.00 55 1017.6
20260901193047 80 141 0.0 0.0 0.00 0.00 0.00 55 1017.7
20260901192601 80 141 0.0 0.0 0.00 0.00 0.00 54 1017.7
20260901192118 80 141 0.0 0.0 0.00 0.00 0.00 54 1017.7
20260901191558 80 141 0.0 0.0 0.00 0.00 0.00 54 1017.6
20260901191100 81 141 0.0 0.0 0.00 0.00 0.00 53 1017.6
20260901190612 81 141 0.0 0.0 0.00 0.00 0.00 53 1017.6
20260901190052 81 141 0.0 0.0 0.00 0.00 0.00 52 1017.5
20260901185613 81 141 0.0 0.0 0.00 0.00 0.00 52 1017.4
20260901185046 82 141 0.0 0.0 0.00 0.00 0.00 51 1017.5
20260901184608 82 141 0.0 0.0 0.00 0.00 0.00 51 1017.4
20260901184102 82 141 0.0 1.0 0.00 0.00 0.00 50 1017.3
20260901183602 82 141 0.0 2.0 0.00 0.00 0.00 49 1017.4
20260901183056 82 141 1.0 2.0 0.00 0.00 0.00 49 1017.3
20260901182617 82 141 1.0 2.0 0.00 0.00 0.00 48 1017.4
20260901182117 83 133 0.0 2.0 0.00 0.00 0.00 48 1017.3
20260901181550 83 97 0.0 0.0 0.00 0.00 0.00 47 1017.2
20260901181112 83 97 0.0 0.0 0.00 0.00 0.00 47 1017.2
20260901180552 83 97 0.0 1.0 0.00 0.00 0.00 47 1017.2
20260901180046 83 96 0.0 2.0 0.00 0.00 0.00 47 1017.1
20260901175606 83 96 1.0 2.0 0.00 0.00 0.00 46 1017.1
20260901175100 83 96 1.0 2.0 0.00 0.00 0.00 46 1017.0
20260901174601 84 93 1.0 2.0 0.00 0.00 0.00 46 1017.0
20260901174055 84 92 1.0 3.0 0.00 0.00 0.00 45 1017.0
20260901173556 84 92 1.0 4.0 0.00 0.00 0.00 45 1016.9
20260901173051 84 96 1.0 4.0 0.00 0.00 0.00 45 1016.9
20260901172554 85 78 1.0 3.0 0.00 0.00 0.00 45 1016.9
20260901172045 85 68 0.0 3.0 0.00 0.00 0.00 45 1016.9
20260901171606 85 67 1.0 3.0 0.00 0.00 0.00 45 1017.0
20260901171100 85 74 1.0 4.0 0.00 0.00 0.00 44 1016.9
20260901170601 85 99 1.0 5.0 0.00 0.00 0.00 44 1016.9
20260901170115 85 103 2.0 5.0 0.00 0.00 0.00 45 1016.9
20260901165554 85 107 2.0 6.0 0.00 0.00 0.00 45 1017.0
20260901165048 85 61 1.0 6.0 0.00 0.00 0.00 45 1017.0
20260901164549 86 69 2.0 6.0 0.00 0.00 0.00 45 1017.1
20260901164110 86 84 0.0 7.0 0.00 0.00 0.00 46 1017.0
20260901163624 86 45 2.0 6.0 0.00 0.00 0.00 45 1017.0
20260901163044 86 107 2.0 6.0 0.00 0.00 0.00 46 1017.1
20260901162557 86 94 3.0 7.0 0.00 0.00 0.00 45 1017.0
20260901162058 87 67 3.0 6.0 0.00 0.00 0.00 45 1017.1
20260901161552 87 101 1.0 5.0 0.00 0.00 0.00 45 1017.1
20260901161053 87 69 1.0 7.0 0.00 0.00 0.00 45 1017.1
20260901160630 87 92 3.0 7.0 0.00 0.00 0.00 44 1017.1
20260901160109 87 155 3.0 7.0 0.00 0.00 0.00 44 1017.1
20260901155602 87 121 2.0 7.0 0.00 0.00 0.00 44 1017.2
20260901155057 87 103 2.0 9.0 0.00 0.00 0.00 44 1017.2
20260901154558 87 119 3.0 9.0 0.00 0.00 0.00 45 1017.2
20260901154052 87 103 3.0 8.0 0.00 0.00 0.00 45 1017.1
20260901153552 87 96 2.0 7.0 0.00 0.00 0.00 45 1017.2
20260901153047 87 80 2.0 7.0 0.00 0.00 0.00 45 1017.2
20260901152547 87 43 2.0 6.0 0.00 0.00 0.00 45 1017.3
20260901152107 87 92 2.0 7.0 0.00 0.00 0.00 45 1017.3
20260901151628 87 98 1.0 8.0 0.00 0.00 0.00 46 1017.3
20260901151101 87 148 4.0 8.0 0.00 0.00 0.00 46 1017.3
20260901150558 87 69 2.0 6.0 0.00 0.00 0.00 47 1017.3
20260901150052 87 67 5.0 6.0 0.00 0.00 0.00 46 1017.4
20260901145552 87 85 3.0 5.0 0.00 0.00 0.00 47 1017.4
20260901145113 87 67 1.0 8.0 0.00 0.00 0.00 46 1017.4
20260901144544 87 59 4.0 8.0 0.00 0.00 0.00 46 1017.4
20260901144105 88 69 4.0 8.0 0.00 0.00 0.00 46 1017.4
20260901143545 88 150 3.0 10.0 0.00 0.00 0.00 47 1017.4
20260901143059 88 87 3.0 10.0 0.00 0.00 0.00 47 1017.5
20260901142600 88 84 3.0 8.0 0.00 0.00 0.00 46 1017.5
20260901142053 88 119 3.0 7.0 0.00 0.00 0.00 47 1017.6
20260901141553 88 61 2.0 8.0 0.00 0.00 0.00 45 1017.6
20260901141054 89 88 3.0 8.0 0.00 0.00 0.00 45 1017.7
20260901140548 89 133 0.0 9.0 0.00 0.00 0.00 46 1017.6
20260901140109 88 132 3.0 9.0 0.00 0.00 0.00 46 1017.6
20260901135603 88 140 5.0 9.0 0.00 0.00 0.00 46 1017.7
20260901135057 87 94 1.0 9.0 0.00 0.00 0.00 47 1017.7
20260901134558 88 96 3.0 10.0 0.00 0.00 0.00 46 1017.7
20260901134052 88 78 4.0 9.0 0.00 0.00 0.00 46 1017.8
20260901133613 88 106 2.0 12.0 0.00 0.00 0.00 47 1017.8
20260901133054 87 145 4.0 12.0 0.00 0.00 0.00 48 1017.8
20260901132547 87 82 3.0 9.0 0.00 0.00 0.00 48 1017.8
20260901132106 87 82 5.0 9.0 0.00 0.00 0.00 47 1017.9
20260901131605 87 96 4.0 9.0 0.00 0.00 0.00 48 1018.0
20260901131058 87 69 3.0 8.0 0.00 0.00 0.00 48 1018.0
20260901130559 87 110 4.0 7.0 0.00 0.00 0.00 47 1017.9
20260901130053 87 52 2.0 8.0 0.00 0.00 0.00 47 1017.9
20260901125553 87 98 4.0 10.0 0.00 0.00 0.00 48 1018.1
20260901125115 88 91 2.0 8.0 0.00 0.00 0.00 47 1018.1
20260901124547 88 100 4.0 8.0 0.00 0.00 0.00 47 1018.1
20260901124108 88 97 4.0 11.0 0.00 0.00 0.00 48 1018.1
20260901123602 87 136 6.0 11.0 0.00 0.00 0.00 48 1018.1
20260901123102 87 78 2.0 11.0 0.00 0.00 0.00 49 1018.1
20260901122623 87 135 4.0 11.0 0.00 0.00 0.00 49 1018.2
20260901122056 87 113 4.0 11.0 0.00 0.00 0.00 51 1018.2
20260901121556 87 94 5.0 9.0 0.00 0.00 0.00 50 1018.2
20260901121051 87 69 3.0 10.0 0.00 0.00 0.00 52 1018.3
20260901120551 87 104 5.0 9.0 0.00 0.00 0.00 52 1018.3
20260901120044 87 123 5.0 9.0 0.00 0.00 0.00 52 1018.3
20260901115544 87 102 3.0 8.0 0.00 0.00 0.00 54 1018.4
20260901115058 86 90 3.0 9.0 0.00 0.00 0.00 54 1018.3
20260901114619 86 82 4.0 9.0 0.00 0.00 0.00 55 1018.4
20260901114058 86 116 5.0 9.0 0.00 0.00 0.00 56 1018.4
20260901113553 86 83 3.0 9.0 0.00 0.00 0.00 57 1018.3
20260901113046 86 111 2.0 14.0 0.00 0.00 0.00 56 1018.3
20260901112608 86 56 8.0 14.0 0.00 0.00 0.00 56 1018.4
20260901112048 86 103 3.0 10.0 0.00 0.00 0.00 55 1018.4
20260901111557 86 140 1.0 11.0 0.00 0.00 0.00 58 1018.4
20260901111058 85 63 5.0 11.0 0.00 0.00 0.00 58 1018.5
20260901110618 86 78 5.0 11.0 0.00 0.00 0.00 58 1018.5
20260901110056 85 86 6.0 11.0 0.00 0.00 0.00 59 1018.5
20260901105548 85 90 7.0 11.0 0.00 0.00 0.00 59 1018.5
20260901105048 85 90 6.0 10.0 0.00 0.00 0.00 59 1018.5
20260901104609 85 59 4.0 13.0 0.00 0.00 0.00 58 1018.5
20260901104044 85 95 5.0 13.0 0.00 0.00 0.00 59 1018.5
20260901103605 84 114 4.0 10.0 0.00 0.00 0.00 59 1018.6